Hourly Weather Roundup
Issued by NWS Central Illinois

Home | Current Version | Previous Version | Text Only | Print | Product List | Glossary On
Versions: 1 2 3 4 5 6 7 8 9 10 11 12 13 14 15 16 17 18 19 20 21 22 23 24 25 26 27 28 29 30 31 32 33 34 35 36 37 38 39 40 41 42 43 44 45 46 47 48 49 50
000
NZUS43 KILX 291310
HWRILX

Area Weather Roundup
National Weather Service Lincoln IL
800 AM CDT MON MAY 29 2017

NOTE:  "FAIR" indicates few or no clouds below 12,000 feet, with
       no sigificant weather and/or obstructions to visibility.


CITY           SKY/WX    TMP DP  RH WIND       PRES   REMARKS
Bloomington    SUNNY     65  53  65 SW10      29.88S
Champaign      SUNNY     67  55  65 W8        29.88F
Danville       SUNNY     66  55  67 SW7       29.86S
Decatur        SUNNY     67  55  65 W7        29.89S
Effingham      SUNNY     67  61  81 SW7       29.93S
Flora          MOSUNNY   69  59  70 SW6       29.93S
Galesburg      SUNNY     64  51  61 W12       29.86S
Jacksonville   SUNNY     65  55  69 SW8       29.89S
Lacon          SUNNY     64  51  63 SW3       29.84S
Lawrenceville  SUNNY     68  59  73 SW6       29.93R
Litchfield     SUNNY     64  57  79 W6        29.92R
$$


CITY           SKY/WX    TMP DP  RH WIND       PRES   REMARKS
Lincoln        SUNNY     68  56  65 SW3       29.87F
Macomb         SUNNY     65  51  61 W9        29.90R
Mattoon        SUNNY     67  57  70 W8        29.89F
Mt Carmel AP   SUNNY     68  58  71 W6        29.93S
Olney-Noble AP SUNNY     67  63  87 SW3       29.94R
Paris AP       SUNNY     67  58  73 W8        29.90S
Peoria         SUNNY     63  53  70 W6        29.87R
Pontiac        SUNNY     65  55  69 W9        29.86F
Rantoul        SUNNY     69  56  62 W8        29.88S
Robinson       PTSUNNY   67  58  71 W7        29.93R
Springfield    SUNNY     67  58  72 SW6       29.89F
Taylorville    SUNNY     66  56  71 SW5       29.90S
$$

...REGIONAL REPORTS...


CITY           SKY/WX    TMP DP  RH WIND       PRES   REMARKS
Chicago O`Hare MOSUNNY   66  49  54 W9        29.79S
Kankakee       SUNNY     69  54  59 CALM      29.85S
Moline         CLOUDY    63  47  55 NW13      29.86R
Mount Sterling SUNNY     65  52  61 SW7       29.88R
Mount Vernon     N/A     67  60  78 SW8       29.94R
Pittsfield     SUNNY     66  56  70 S6        29.91S
Quincy         SUNNY     64  54  69 SW7       29.89R
Rockford       PTSUNNY   66  49  54 W13       29.83R
$$


CITY           SKY/WX    TMP DP  RH WIND       PRES   REMARKS
Burlington     MOSUNNY   64  51  62 W9        29.88R
Cedar Rapids   MOSUNNY   60  50  69 NW12      29.87S
Des Moines     PTSUNNY   62  48  60 NW7       29.92S
Kirksville     MOSUNNY   61  51  70 NW9       29.93R
Ottumwa        MOSUNNY   58  52  80 NW6       29.90F
St Louis       MOSUNNY   69  55  60 W9        29.93R
$$


CITY           SKY/WX    TMP DP  RH WIND       PRES   REMARKS
Terre Haute    SUNNY     67  56  67 W12       29.90F
Evansville     SUNNY     71  61  70 W7        29.95R
Indianapolis   MOSUNNY   65  58  78 SW10      29.89S
Lafayette      SUNNY     64  57  78 SW7       29.86S
Madison        MOSUNNY   60  46  59 VRB6      29.77S
Milwaukee      SUNNY     65  46  50 W15G23    29.75S
$$






USA.gov is the U.S. government's official web portal to all federal, state and local government web resources and services.